Weather History for Kansas City International, MO

Change the Weather History Date:

Sunday, May 19, 2013

  Actual Average Record
Temperature  
Mean Temperature 22 °C 18 °C  
Max Temperature 28 °C 24 °C 35 °C (2006)
Min Temperature 16 °C 13 °C 3 °C (1894)
Degree Days  
Heating Degree Days 0 3  
Month to date heating degree days 141 82  
Since 1 July heating degree days 5170 5102  
Cooling Degree Days 6 3  
Month to date cooling degree days 42 37  
Year to date cooling degree days 55 65  
Growing Degree Days 22 (Base 50)    
Moisture  
Dew Point 17 °C    
Average Humidity 74    
Maximum Humidity 87    
Minimum Humidity 60    
Precipitation  
Precipitation 11.18 mm 4.32 mm 5.97 mm (1915)
Month to date precipitation 2.91 3.20  
Year to date precipitation 11.38 11.80  
Snow  
Snow 0.00 cm 0.00 cm 0.00 cm ()
Month to date snowfall 0.5 0.0  
Since 1 July snowfall 31.8 18.8  
Snow Depth 0.00 cm    
Sea Level Pressure  
Sea Level Pressure 1006 hPa    
Wind  
Wind Speed 22 km/h (South)    
Max Wind Speed 61 km/h    
Max Gust Speed 76 km/h    
Visibility 14 kilometers    
Events Rain , Thunderstorm    
T = Trace of Precipitation, MM = Missing Value Source: NWS Daily Summary

Daily Weather History Graph

Daily Weather History Graph

Search for Another Location

Airport:

Trip Planner

Search our weather history database for the weather conditions in past years. The results will help you decide how hot, cold, wet, or windy it might be!

Date:

Astronomy

May. 19, 2013 Rise Set
Actual Time 6:01 AM CDT 8:29 PM CDT
Civil Twilight 5:31 AM CDT 9:00 PM CDT
Nautical Twilight 4:53 AM CDT 9:38 PM CDT
Astronomical Twilight 4:11 AM CDT 10:20 PM CDT
Moon 2:36 PM CDT (5/19) 2:23 AM CDT (5/19)
Length of Visible Light 15h 28m
Length of Day
14h 27m
Waxing Gibbous, 65% of the Moon is Illuminated
May 19
Waxing Gibbous
May 24
Full
May 31
Last Quarter
Jun 8
New
Jun 16
First Quarter

Hourly Weather History & Observations

Time (CDT) Temp. Heat Index Dew Point Humidity Pressure Visibility Wind Dir Wind Speed Gust Speed Precip Events Conditions
12:17 AM 24.0 °C - 21.0 °C 83% 1009.0 hPa 14.5 km South 25.9 km/h / 7.2 m/s - N/A   Overcast
12:53 AM 25.0 °C - 21.1 °C 79% 1008.2 hPa 12.9 km South 18.5 km/h / 5.1 m/s - N/A   Overcast
1:00 AM 25.0 °C - 21.0 °C 78% 1010.7 hPa 12.9 km WNW 37.0 km/h / 10.3 m/s 50.0 km/h / 13.9 m/s N/A   Overcast
1:12 AM 19.0 °C - 14.0 °C 73% 1011.1 hPa 11.3 km WNW 27.8 km/h / 7.7 m/s 57.4 km/h / 15.9 m/s 0.0 mm Rain , Thunderstorm Light Thunderstorms and Rain
1:19 AM 19.0 °C - 14.0 °C 73% 1011.1 hPa 16.1 km NW 14.8 km/h / 4.1 m/s 35.2 km/h / 9.8 m/s 0.0 mm Rain , Thunderstorm Light Thunderstorms and Rain
1:53 AM 17.2 °C - 15.0 °C 87% 1009.6 hPa 16.1 km NW 11.1 km/h / 3.1 m/s - 2.3 mm Rain , Thunderstorm Light Thunderstorms and Rain
2:11 AM 17.0 °C - 15.0 °C 88% 1010.0 hPa 16.1 km North 7.4 km/h / 2.1 m/s - 0.0 mm Rain Light Rain
2:53 AM 17.8 °C - 15.0 °C 84% 1008.0 hPa 16.1 km ENE 5.6 km/h / 1.5 m/s - N/A   Overcast
3:27 AM 18.0 °C - 16.0 °C 88% 1008.4 hPa 16.1 km SE 11.1 km/h / 3.1 m/s - N/A Thunderstorm Thunderstorm
3:53 AM 17.2 °C - 15.6 °C 90% 1007.7 hPa 16.1 km ESE 9.3 km/h / 2.6 m/s - 0.3 mm Rain , Thunderstorm Light Thunderstorms and Rain
4:29 AM 17.0 °C - 16.0 °C 94% 1008.4 hPa 16.1 km ESE 16.7 km/h / 4.6 m/s - 0.0 mm   Overcast
4:53 AM 17.0 °C - 16.0 °C 94% 1007.7 hPa 16.1 km East 22.2 km/h / 6.2 m/s - N/A   Mostly Cloudy
5:53 AM 17.8 °C - 15.6 °C 87% 1004.7 hPa 16.1 km East 14.8 km/h / 4.1 m/s - N/A   Mostly Cloudy
6:53 AM 18.0 °C - 16.0 °C 88% 1008.4 hPa 16.1 km SSE 24.1 km/h / 6.7 m/s - N/A   Overcast
7:53 AM 18.3 °C - 16.1 °C 87% 1008.3 hPa 12.9 km South 25.9 km/h / 7.2 m/s - 0.3 mm Rain Light Rain
8:53 AM 17.8 °C - 16.1 °C 90% 1004.3 hPa 16.1 km SE 25.9 km/h / 7.2 m/s - 1.5 mm   Overcast
9:53 AM 21.7 °C - 16.7 °C 73% 1004.5 hPa 16.1 km SSE 27.8 km/h / 7.7 m/s 33.3 km/h / 9.3 m/s N/A   Scattered Clouds
10:53 AM 23.9 °C - 16.1 °C 62% 1003.9 hPa 16.1 km SSE 38.9 km/h / 10.8 m/s 50.0 km/h / 13.9 m/s N/A   Mostly Cloudy
11:53 AM 25.6 °C - 18.3 °C 64% 1003.9 hPa 16.1 km South 38.9 km/h / 10.8 m/s 61.1 km/h / 17.0 m/s N/A   Scattered Clouds
12:53 PM 26.7 °C 28.0 °C 19.4 °C 64% 1003.7 hPa 16.1 km South 31.5 km/h / 8.7 m/s 50.0 km/h / 13.9 m/s N/A   Scattered Clouds
1:53 PM 26.0 °C - 19.0 °C 65% 1005.0 hPa 16.1 km South 31.5 km/h / 8.7 m/s - N/A   Mostly Cloudy
2:53 PM 25.0 °C - 19.0 °C 69% 1004.6 hPa 16.1 km South 16.7 km/h / 4.6 m/s 31.5 km/h / 8.7 m/s N/A   Overcast
3:53 PM 26.1 °C - 19.4 °C 66% 1002.9 hPa 16.1 km South 14.8 km/h / 4.1 m/s - N/A   Overcast
4:53 PM 27.2 °C 28.8 °C 20.0 °C 65% 1001.8 hPa 16.1 km SSE 29.6 km/h / 8.2 m/s 37.0 km/h / 10.3 m/s N/A   Mostly Cloudy
5:53 PM 25.6 °C - 19.4 °C 68% 1000.4 hPa 16.1 km South 18.5 km/h / 5.1 m/s - N/A   Overcast
6:53 PM 25.6 °C - 18.9 °C 66% 1001.2 hPa 16.1 km SSW 20.4 km/h / 5.7 m/s - N/A   Overcast
7:33 PM 22.0 °C - 16.0 °C 69% 1003.3 hPa 4.8 km WSW 53.7 km/h / 14.9 m/s 75.9 km/h / 21.1 m/s 0.0 mm Rain , Thunderstorm Light Thunderstorms and Rain
7:37 PM 18.0 °C - 15.0 °C 83% 1003.9 hPa 2.4 km WSW 44.4 km/h / 12.3 m/s 75.9 km/h / 21.1 m/s 0.8 mm Rain , Thunderstorm Heavy Thunderstorms and Rain
7:53 PM 17.2 °C - 14.4 °C 84% 1002.5 hPa 6.4 km WSW 31.5 km/h / 8.7 m/s 55.6 km/h / 15.4 m/s 4.1 mm Rain , Thunderstorm Light Thunderstorms and Rain
8:33 PM 18.0 °C - 14.0 °C 77% 1003.3 hPa 11.3 km SSW 25.9 km/h / 7.2 m/s 40.7 km/h / 11.3 m/s 2.3 mm Rain Rain
8:53 PM 17.2 °C - 13.9 °C 81% 1001.4 hPa 11.3 km South 31.5 km/h / 8.7 m/s - 2.8 mm Rain Light Rain
9:53 PM 17.2 °C - 13.9 °C 81% 1002.6 hPa 16.1 km South 20.4 km/h / 5.7 m/s - 0.0 mm   Overcast
10:53 PM 17.0 °C - 14.0 °C 82% 1004.6 hPa 16.1 km SSW 14.8 km/h / 4.1 m/s - N/A   Overcast
11:22 PM 17.0 °C - 14.0 °C 82% 1004.6 hPa 16.1 km SSW 11.1 km/h / 3.1 m/s - 0.0 mm   Light Drizzle
11:53 PM 16.7 °C - 14.4 °C 86% 1004.0 hPa 16.1 km SSW 7.4 km/h / 2.1 m/s - 0.0 mm   Overcast